Tracking 27420 objects as of 28-May-2023
HD Live streaming from Space Station
objects crossing your sky now

STARLINK-6094

Track STARLINK-6094 now!
10-day predictions
STARLINK-6094 is classified as:


NORAD ID: 56122
Int'l Code: 2023-046AF
Perigee: 565.1 km
Apogee: 567.3 km
Inclination: 43.0 °
Period: 95.8 minutes
Semi major axis: 6937 km
RCS: Unknown
Launch date: March 29, 2023
Source: United States (US)
Launch site: AIR FORCE EASTERN TEST RANGE (AFETR)
Your satellite tracking list
Your tracking list is empty




NASA's NSSDC Master Catalog

Two Line Element Set (TLE):
1 56122U 23046AF  23148.41655162 -.00000087  00000-0  86020-5 0  9996
2 56122  43.0016 280.6218 0001588 267.2375  92.8286 15.02537302  9735
Source of the keplerian elements: AFSPC